Regional Weather Roundup
Issued by NWS Little Rock, AR

Home | Current Version | Previous Version | Graphics & Text | Print | Product List | Glossary On
Versions: 1 2 3 4 5 6 7 8 9 10 11 12 13 14 15 16 17 18 19 20 21 22 23 24 25 26 27 28 29 30 31 32 33 34 35 36 37 38 39 40 41 42 43 44 45 46 47 48 49
540
ASUS44 KLZK 100005
RWRLZK

WEATHER ROUNDUP FOR ARKANSAS
NATIONAL WEATHER SERVICE LITTLE ROCK AR
600 PM CST TUE FEB 09 2016

NOTE: "FAIR" INDICATES FEW OR NO CLOUDS BELOW 12,000 FEET WITH NO
SIGNIFICANT WEATHER AND/OR OBSTRUCTIONS TO VISIBILITY.

ARZ001-003-010-029-100100-
NORTHWEST ARKANSAS

CITY           SKY/WX    TMP DP  RH WIND       PRES   REMARKS
FAYETTEVILLE   CLEAR     33  10  38 NW13      30.20R WCI  24
6HR MIN TEMP:  33; 6HR MAX TEMP:  40;

FORT SMITH     CLEAR     42   8  24 NW14      30.22R
6HR MIN TEMP:  42; 6HR MAX TEMP:  49;

HARRISON       CLEAR     32   7  35 NW10G21   30.14R WCI  24
6HR MIN TEMP:  32; 6HR MAX TEMP:  36;

BENTONVILLE    CLEAR     34   7  32 NW14G22   30.20R WCI  24
ROGERS         CLEAR     32   8  36 NW12      30.19R WCI  23
6HR MIN TEMP:  32; 6HR MAX TEMP:  37; 6HR PCP: TRACE;

SILOAM SPGS    CLEAR     34   9  35 N14       30.21R WCI  24
6HR MIN TEMP:  34; 6HR MAX TEMP:  39;

HIGHFILL       CLEAR     34   9  35 NW13G23   30.18R WCI  25
6HR MIN TEMP:  34; 6HR MAX TEMP:  40;

SPRINGDALE     CLEAR     34   7  32 NW10G17   30.20R WCI  26
$$

ARZ004-005-016-100100-
NORTH CENTRAL ARKANSAS

CITY           SKY/WX    TMP DP  RH WIND       PRES   REMARKS
BATESVILLE     CLEAR     36   9  32 W12G18    30.14R
6HR MIN TEMP:  36; 6HR MAX TEMP:  43;

FLIPPIN        CLEAR    N/A N/A N/A NW16G22   30.12R
MTN HOME       CLEAR     31   8  38 NW8G23    30.13R WCI  23
6HR MIN TEMP:  31; 6HR MAX TEMP:  36;

$$

ARZ040-041-100100-
WEST CENTRAL ARKANSAS

CITY           SKY/WX    TMP DP  RH WIND       PRES   REMARKS
MENA           CLEAR     45  16  31 NW15G22   30.19R
MOUNT IDA      CLEAR     44   9  23 NW15G28   30.14R
6HR MIN TEMP:  44; 6HR MAX TEMP:  50;

$$

ARZ009-017-025-026-028-100100-
NORTHEAST ARKANSAS

CITY           SKY/WX    TMP DP  RH WIND       PRES   REMARKS
CORNING        FAIR      32  10  40 NW8       30.13R WCI  25
JONESBORO      CLEAR     31  11  43 NW8       30.13R WCI  23
6HR MIN TEMP:  30; 6HR MAX TEMP:  34;

NEWPORT        CLEAR     33  10  38 NW12      30.16R WCI  24
6HR MIN TEMP:  33; 6HR MAX TEMP:  41;

WALNUT RIDGE   CLEAR     30   9  40 N12G18    30.14R WCI  21
6HR MIN TEMP:  30; 6HR MAX TEMP:  36;

BLYTHEVILLE    MOCLDY    32  15  49 N10       30.12R WCI  24
6HR MIN TEMP:  32; 6HR MAX TEMP:  37;

$$

ARZ022-023-033-042-044-100100-
CENTRAL ARKANSAS

CITY           SKY/WX    TMP DP  RH WIND       PRES   REMARKS
LITTLE ROCK    PTCLDY    44   4  19 NW14G21   30.14R
6HR MIN TEMP:  44; 6HR MAX TEMP:  51;

JACKSONVILLE   CLEAR     40   6  24 NW3       30.13R
6HR MIN TEMP:  40; 6HR MAX TEMP:  49;

SEARCY         CLEAR     36  10  34 NW5       30.16R
6HR MIN TEMP:  36; 6HR MAX TEMP:  46;

HOT SPRINGS    CLEAR     45   9  23 NW9G23    30.16R
6HR MIN TEMP:  45; 6HR MAX TEMP:  50;

RUSSELLVILLE   PTCLDY    41   6  23 NW14G24   30.16R
6HR MIN TEMP:  41; 6HR MAX TEMP:  48;

CLINTON        FAIR      37   7  28 NW7       30.16R
$$

ARZ036-100100-
EAST ARKANSAS

CITY           SKY/WX    TMP DP  RH WIND       PRES   REMARKS
WEST MEMPHIS   CLEAR     32  16  51 N9G22     30.13R WCI  24
6HR MIN TEMP:  32; 6HR MAX TEMP:  38; 6HR PCP: TRACE;

$$

ARZ050-053-066-070-073-100100-
SOUTHWEST ARKANSAS

CITY           SKY/WX    TMP DP  RH WIND       PRES   REMARKS
ARKADELPHIA    FAIR      46  13  26 NW10      30.18R
CAMDEN         CLEAR     48   9  20 NW13G21   30.16R
TEXARKANA      CLEAR     49  19  30 NW14      30.20R
6HR MIN TEMP:  49; 6HR MAX TEMP:  54;

EL DORADO      CLEAR     49  15  25 NW13G21   30.16R
6HR MIN TEMP:  49; 6HR MAX TEMP:  55;

DE QUEEN       CLEAR     48  19  31 NW15G23   30.20R
6HR MIN TEMP:  48; 6HR MAX TEMP:  54;

$$

ARZ056-057-069-100100-
SOUTHEAST ARKANSAS

CITY           SKY/WX    TMP DP  RH WIND       PRES   REMARKS
PINE BLUFF     CLEAR     45  11  25 NW12      30.13R
6HR MIN TEMP:  45; 6HR MAX TEMP:  51; 6HR PCP: TRACE;

STUTTGART      CLEAR     39  12  33 N13       30.14R
6HR MIN TEMP:  39; 6HR MAX TEMP:  48;

MONTICELLO     CLEAR     48  13  24 W10       30.11R
6HR MIN TEMP:  48; 6HR MAX TEMP:  54;


$$






USA.gov is the U.S. government's official web portal to all federal, state and local government web resources and services.